Location: Dziadowski
(50.3833°N, 20.0333°E)
Time: 14:33:24
(UTC+00:00)

Cosmos 1339 Rocket - Pass Details

Date: 18 January 2026
Orbit: 940 x 1006 km, 82.9° (Epoch: 9 February)

Event Time Altitude Azimuth Distance (km) Brightness Sun altitude
Rises 04:40:17 0° 348° (NNW) 3,617 7.2 -17.2°
Reaches altitude 10° 04:42:47 10° 345° (NNW) 2,669 6.5 -16.8°
Maximum altitude 04:48:46 63° 266° (W) 1,048 4.4 -15.9°
Drops below altitude 10° 04:54:47 10° 187° (S) 2,672 6.9 -15.0°
Sets 04:57:17 0° 184° (S) 3,621 7.6 -14.6°
